Theta_e
325 324 323 321 319 318 318 318 318 318 318 318 317 317 317 316 316 317 317 316 316 315 314 314 313 312 312 311 310 309 307 308 309 310 311 312 311 310 309 308 307 307 306 305 306 307 306 307 307 308 310 310 310 310 309 309 310 310 310 309 309 309 308 310 310 310 310 310 311 313 312 312 313 313 311 310 309 309 308 308 308 307 306 306 306
326 325 324 323 321 319 319 319 318 318 318 319 318 317 317 317 317 317 316 316 316 315 314 313 312 312 312 311 310 309 307 306 308 310 311 311 311 309 307 307 307 307 305 304 305 306 306 307 307 308 309 310 310 310 310 309 310 310 309 309 309 309 308 309 310 311 310 311 312 312 312 312 312 313 312 310 310 309 309 308 308 307 306 306 306
326 325 325 324 323 321 319 319 318 318 318 319 318 318 318 317 317 317 316 316 316 315 314 313 312 312 311 310 310 309 307 306 307 309 310 309 309 308 307 308 308 307 306 303 303 305 306 307 307 308 309 310 310 310 310 310 310 309 309 309 309 308 308 309 310 311 311 312 312 312 313 313 312 312 312 310 309 309 309 308 308 308 307 307 306
326 326 325 325 324 322 320 319 318 318 318 318 318 318 318 317 317 316 316 316 316 315 314 313 312 311 311 310 310 309 307 305 306 308 309 308 308 307 307 308 308 307 306 304 302 304 306 307 308 308 309 310 310 310 310 310 310 309 309 309 309 308 308 309 310 310 311 311 311 312 313 313 312 312 312 311 310 309 309 309 308 308 308 307 307
327 326 326 325 324 323 321 320 319 318 318 318 318 318 318 318 317 316 316 316 315 315 314 313 312 311 311 310 309 309 307 305 305 307 308 308 308 307 307 307 307 306 307 305 302 303 306 307 307 308 309 310 310 310 310 310 310 310 309 309 309 308 308 309 310 310 310 311 311 311 311 312 312 312 311 310 310 310 309 309 309 308 308 308 307
328 327 326 326 325 325 323 321 320 319 319 319 318 318 318 318 317 317 316 316 315 315 314 313 312 311 311 310 309 309 307 305 304 305 306 307 308 308 307 308 308 307 306 305 302 302 305 306 307 308 308 309 310 310 310 310 310 309 310 309 308 308 308 309 310 310 310 311 311 311 311 312 313 313 311 310 310 310 310 309 309 308 308 308 308
329 328 327 326 326 326 325 323 321 320 320 319 319 319 318 317 317 316 316 316 315 315 314 313 313 312 311 310 309 309 308 306 303 303 304 306 307 308 308 308 308 307 307 306 303 302 304 305 306 307 308 308 309 310 310 310 310 309 309 309 309 308 308 309 310 310 311 311 311 311 311 311 312 312 311 310 310 310 310 310 309 309 308 308 308
330 329 328 328 326 326 326 324 322 320 320 320 319 319 318 317 317 316 316 316 315 315 314 314 313 312 311 310 309 309 308 307 304 302 303 305 306 307 308 308 308 308 307 307 304 302 303 305 305 306 306 306 307 309 309 309 309 309 309 309 308 308 309 310 310 310 311 311 311 311 311 311 311 312 311 310 310 310 310 310 309 309 309 308 308
331 330 329 329 327 327 326 325 323 321 320 320 320 320 319 318 317 317 316 316 315 315 314 314 313 312 311 310 309 309 308 307 305 301 300 303 306 307 307 308 308 307 307 306 305 302 303 305 304 303 303 303 306 308 307 306 307 309 309 309 308 308 309 310 310 310 311 311 311 311 311 311 311 311 311 311 311 311 310 310 310 309 309 309 308
331 331 330 330 328 328 327 326 324 322 321 320 320 320 320 319 318 317 316 316 315 315 315 314 313 312 311 310 310 309 308 307 306 302 297 297 302 305 306 308 308 307 306 306 304 302 302 305 305 303 303 305 307 307 305 305 306 307 307 307 307 308 309 310 310 310 311 311 311 311 311 311 311 310 311 311 311 311 311 310 310 310 309 309 309
332 331 331 330 329 328 327 327 326 324 322 321 320 320 320 319 318 317 317 316 316 315 315 314 313 312 311 311 310 310 309 307 307 305 299 294 297 302 306 308 308 307 306 306 304 302 302 304 305 305 306 307 307 307 306 305 306 306 305 305 306 307 308 309 310 310 310 311 311 311 311 312 311 310 310 312 311 311 310 310 310 310 310 310 309
332 331 331 330 329 329 328 327 326 325 323 322 321 320 320 319 319 318 317 317 316 316 315 314 313 312 311 311 311 310 310 308 307 306 302 295 294 299 304 307 308 307 306 305 304 302 302 305 306 306 306 306 307 308 308 307 307 306 306 306 306 306 306 307 309 310 310 310 311 311 310 311 312 311 310 311 311 310 310 310 310 310 310 310 310
331 331 331 330 329 328 328 327 326 325 325 323 322 321 320 320 320 319 318 317 316 317 316 314 313 313 312 311 311 310 310 309 307 306 304 297 293 295 301 306 308 307 306 305 303 302 303 305 306 306 306 306 307 308 309 309 308 307 307 308 308 307 307 307 308 309 309 310 310 310 310 310 311 311 310 311 311 310 310 310 310 310 310 310 310
331 330 330 329 329 328 327 327 327 326 325 324 323 322 321 321 320 320 319 318 317 317 316 314 313 313 312 311 311 311 310 308 307 306 305 300 293 292 299 306 307 306 306 305 303 302 303 305 306 306 307 307 307 307 308 309 309 308 309 309 308 308 308 307 308 308 309 309 309 309 309 310 310 311 311 311 310 309 311 311 310 309 310 309 309
330 330 329 329 328 327 327 327 326 326 325 324 324 323 322 321 321 320 320 319 319 318 316 315 314 313 313 311 311 311 310 308 307 306 305 301 293 291 299 306 307 306 305 304 303 302 303 305 306 306 307 307 305 305 306 308 309 308 308 308 308 309 308 307 307 308 308 308 308 308 309 309 310 309 310 311 311 310 311 311 310 310 310 309 309
328 328 328 328 327 327 326 326 326 325 325 324 324 323 322 322 321 321 320 319 319 318 315 314 314 314 314 312 311 311 310 308 307 305 306 301 293 293 301 307 306 306 306 304 302 301 303 305 305 305 306 306 305 304 305 307 309 308 308 308 308 309 308 307 306 307 307 307 307 308 309 309 309 309 308 310 311 310 310 311 310 310 310 310 310
326 326 326 326 326 325 325 325 325 325 324 324 323 322 322 322 321 321 320 320 319 317 315 314 314 314 314 313 312 311 310 309 306 306 306 299 292 296 304 306 306 306 305 303 302 301 302 303 304 306 306 305 304 304 304 306 308 308 307 308 307 308 308 308 307 307 307 307 307 307 309 309 309 309 308 308 310 310 311 311 311 310 309 310 311
324 324 325 324 324 324 324 324 324 324 324 323 322 322 321 321 321 321 320 320 318 316 315 316 315 314 314 314 313 311 311 309 306 306 305 297 291 298 305 305 305 306 305 303 302 301 300 300 302 304 304 302 302 304 304 306 308 307 306 307 307 307 308 308 308 308 308 308 308 308 309 309 309 309 308 308 308 310 311 311 310 310 309 310 310
324 325 324 324 324 324 324 324 323 323 323 323 322 322 321 321 321 321 319 319 318 317 316 316 316 315 314 314 313 311 310 310 307 306 305 297 291 296 303 304 305 306 304 302 301 301 301 300 300 300 299 297 298 302 304 306 307 307 306 306 307 307 308 308 308 309 309 309 309 309 309 309 309 310 309 308 308 310 311 311 310 310 310 310 310
324 325 325 325 324 324 324 324 324 324 323 323 323 322 322 321 321 321 320 319 318 318 317 316 315 315 315 314 313 310 310 310 308 306 306 300 292 294 301 304 304 306 304 301 301 301 301 302 300 297 296 295 295 298 301 304 306 307 307 307 307 307 307 308 308 308 309 309 309 309 309 309 309 309 309 309 309 309 310 310 311 311 310 310 309
323 323 323 323 323 324 324 324 324 324 324 324 323 323 323 323 322 321 320 320 318 318 317 317 315 315 314 313 312 310 309 309 309 307 307 303 294 291 298 303 304 305 304 300 300 300 301 303 300 296 295 295 294 295 298 302 305 307 306 306 305 306 307 308 308 308 309 309 309 309 309 309 309 309 309 309 309 309 309 309 310 311 311 310 310
320 319 320 320 321 322 322 323 324 324 323 324 324 324 323 323 323 322 321 320 319 318 318 317 316 316 315 313 311 310 308 308 309 308 307 304 296 290 295 302 304 305 303 300 300 301 301 302 301 296 295 296 295 294 296 300 303 305 305 304 304 304 307 308 307 308 309 308 308 308 308 308 308 308 308 309 308 309 309 309 309 310 310 310 310
318 318 318 319 320 320 320 321 322 322 322 323 323 323 323 323 322 322 321 320 319 319 318 318 317 316 316 314 312 311 308 307 308 308 307 305 297 290 294 301 304 304 302 300 300 301 301 302 300 297 295 296 295 294 295 299 302 303 303 303 303 304 307 307 307 308 308 308 308 308 308 308 308 308 308 308 308 308 309 309 309 309 310 309 310
318 319 319 319 320 320 319 320 319 319 320 321 321 322 322 322 322 321 320 320 320 319 319 319 318 317 316 315 314 312 310 308 308 308 308 306 298 291 294 300 302 302 301 300 300 301 301 301 299 297 296 296 295 294 294 298 301 302 302 303 303 305 307 307 307 308 308 308 308 308 308 308 308 307 307 307 307 308 308 308 309 309 310 309 309
317 318 318 319 319 319 318 318 317 317 318 319 319 320 320 320 321 320 320 320 320 319 319 319 318 318 317 316 315 314 311 309 308 307 308 306 298 292 294 299 300 300 299 300 302 300 299 299 297 296 297 296 295 297 298 299 300 301 302 303 305 307 307 307 307 308 308 308 308 308 307 307 307 307 307 307 308 308 308 309 309 309 310 309 309
316 316 316 317 317 317 317 316 316 316 316 317 317 317 318 318 319 319 319 319 319 319 319 319 318 318 317 316 316 314 311 309 307 307 308 306 297 292 295 300 300 298 297 300 301 298 296 296 296 297 297 296 297 299 299 299 300 301 302 304 306 307 307 307 308 308 308 308 308 307 307 307 307 307 307 307 308 308 309 309 309 310 310 309 308
314 315 316 315 315 315 315 314 314 314 315 315 315 315 316 316 317 317 318 318 319 319 319 319 318 318 318 317 317 316 312 309 307 306 307 305 298 292 295 300 300 297 296 299 299 297 295 296 297 297 297 296 296 297 297 298 301 303 303 305 306 306 306 306 307 308 308 308 308 307 307 307 307 307 307 308 308 308 308 309 309 310 310 309 308
314 314 314 314 314 314 313 313 312 313 313 314 313 314 315 315 315 315 315 316 317 317 318 318 318 318 318 317 317 316 313 309 306 306 306 305 300 294 294 299 299 296 296 299 299 297 296 296 297 297 296 296 297 298 298 300 304 304 304 304 305 305 304 305 306 307 307 307 307 308 307 307 307 307 307 308 308 308 308 308 309 309 310 309 308
313 313 313 313 313 312 312 311 311 311 311 311 311 312 313 313 313 313 313 313 314 313 314 316 317 317 317 317 317 317 314 310 307 307 306 306 304 298 294 296 298 297 297 300 300 298 297 297 298 298 298 298 298 299 299 301 303 304 304 304 305 304 304 305 306 306 306 307 307 307 307 308 307 307 307 307 307 307 307 308 309 309 310 309 308
311 311 311 311 310 310 310 309 309 309 309 309 310 310 310 310 311 311 312 312 311 310 309 311 313 315 315 315 315 316 314 311 309 308 306 305 306 303 297 295 296 297 298 298 299 299 299 299 299 299 299 299 299 298 299 301 303 304 305 304 304 305 305 305 305 305 306 306 306 306 307 307 307 307 307 307 307 306 306 307 309 309 309 308 308
309 309 309 308 308 308 308 307 308 308 308 309 309 310 310 310 309 310 310 310 310 309 308 308 309 311 312 312 312 312 312 310 309 308 306 305 305 302 297 294 295 297 297 297 298 299 299 299 299 299 299 299 298 297 298 301 303 304 304 304 304 304 304 304 304 305 305 305 305 305 306 307 307 307 307 307 306 306 306 307 308 309 309 308 308
308 308 308 308 307 307 307 308 308 309 309 309 310 310 310 311 310 310 310 310 310 310 309 308 308 309 310 310 310 309 310 310 309 307 306 306 304 299 295 293 294 296 296 296 298 300 299 298 299 299 298 299 298 297 297 300 303 304 305 304 304 304 304 304 305 305 304 304 305 305 306 306 307 307 306 306 306 305 306 306 307 308 308 308 307
308 308 308 308 308 308 308 309 309 309 310 310 310 310 310 311 311 311 311 310 310 310 310 310 309 309 309 310 309 308 308 308 308 307 306 305 303 298 294 293 293 294 295 296 298 299 299 298 299 299 298 298 298 296 297 299 302 303 304 304 303 304 304 305 304 304 304 304 304 305 305 306 306 306 306 305 305 305 305 305 306 307 308 307 307
308 308 308 308 308 308 309 309 309 309 309 309 309 310 310 310 310 310 310 310 311 310 311 311 310 310 310 310 309 308 307 307 307 307 306 304 302 297 294 293 293 294 294 296 298 299 298 298 299 298 297 298 297 297 296 298 301 303 304 304 303 303 304 304 304 304 304 304 304 304 305 305 306 307 306 305 304 304 304 305 306 307 307 307 307
308 308 308 308 308 308 308 308 308 308 308 308 308 307 307 307 308 308 309 309 310 310 311 311 311 310 310 309 309 308 306 306 306 306 306 305 302 297 293 293 293 294 294 296 298 299 298 297 298 298 297 297 297 297 296 298 300 302 303 304 303 303 303 303 303 303 303 303 304 304 304 305 306 306 306 305 304 303 303 304 305 305 306 306 307
308 308 308 307 307 307 306 306 306 306 305 305 304 304 304 305 306 307 308 309 309 310 310 310 310 310 310 309 309 307 305 305 305 305 305 304 301 296 294 294 294 294 295 297 299 298 297 297 298 297 297 297 297 297 297 297 299 302 303 303 303 303 302 302 303 303 303 303 303 303 304 304 305 305 306 305 303 303 303 303 304 304 305 305 307
307 307 307 306 305 305 304 304 304 304 303 302 302 303 303 304 305 305 306 306 307 308 309 309 310 310 310 309 308 307 305 304 304 304 304 303 301 296 294 294 295 296 297 298 298 297 296 296 297 297 297 297 297 296 297 297 299 301 302 303 303 303 303 303 303 303 303 303 303 303 304 304 304 305 305 304 303 302 302 302 302 303 303 304 305
306 306 305 304 303 303 303 303 302 302 301 301 302 302 303 303 303 303 303 304 305 306 307 309 309 310 310 309 307 305 304 303 302 302 301 299 297 295 294 295 296 297 297 298 298 297 295 296 296 297 297 297 297 296 297 297 299 300 301 303 303 303 303 303 302 303 303 303 302 303 304 304 304 305 305 305 304 302 302 302 302 302 303 304 305
305 305 304 303 302 302 302 301 301 301 301 301 301 301 301 301 301 302 302 303 304 304 305 307 308 309 310 309 306 304 303 302 301 300 298 296 295 295 296 297 297 298 298 299 298 296 295 295 296 297 297 297 297 296 296 297 298 299 300 302 303 302 302 302 302 302 303 302 302 302 303 303 303 304 305 305 304 302 302 302 302 303 303 303 304
305 305 304 302 301 301 301 301 300 300 300 300 300 300 300 300 300 301 301 301 302 303 303 304 305 307 308 308 307 306 305 304 303 301 299 298 297 297 298 298 298 299 299 299 298 297 296 295 296 296 297 296 296 296 296 297 297 298 299 301 302 302 302 302 301 302 302 302 301 302 303 303 303 304 304 304 304 303 303 302 302 303 302 301 301
305 304 303 302 301 301 300 300 300 299 299 299 299 299 299 299 299 299 300 300 300 301 301 302 303 304 304 305 306 305 305 306 305 303 301 300 299 299 299 299 299 299 299 299 298 297 296 295 296 296 297 296 296 296 296 296 297 297 298 300 301 302 302 302 302 302 302 301 301 301 302 302 303 303 303 303 303 303 303 302 302 301 301 300 300
304 303 303 302 301 301 300 300 299 299 299 299 299 299 298 298 298 298 299 299 299 299 300 300 301 302 302 303 303 303 304 306 306 304 302 301 300 300 300 299 299 299 299 298 298 298 296 295 296 296 296 296 296 296 296 296 296 296 297 299 301 302 302 302 302 301 301 301 301 301 302 301 302 302 302 302 303 303 303 303 302 301 300 300 300
303 303 302 302 301 300 300 299 299 299 298 298 298 298 297 297 297 297 298 298 299 299 300 300 301 301 301 301 302 302 303 304 305 305 303 302 301 300 299 299 299 299 299 299 299 298 297 295 295 296 296 296 296 296 296 296 296 295 296 297 299 301 302 302 301 301 301 301 301 301 301 301 301 301 302 302 303 303 302 303 302 301 300 299 299
302 302 302 301 300 300 299 299 298 298 298 297 297 297 297 297 297 297 298 298 298 299 300 300 300 301 301 301 301 302 302 303 305 305 304 302 300 300 299 299 299 299 299 299 299 298 296 295 295 296 296 296 296 296 296 296 295 295 295 296 298 300 302 301 301 300 301 301 301 301 301 301 301 301 301 302 302 302 301 302 302 302 301 300 299
302 301 301 300 300 299 299 299 298 298 297 297 297 297 297 297 297 297 298 298 298 298 299 299 300 300 301 301 301 302 302 303 304 304 303 301 300 299 300 299 299 298 298 298 298 297 295 295 295 295 296 296 296 295 296 296 295 295 295 295 297 299 301 301 301 301 301 301 301 300 300 301 301 301 301 302 302 301 301 301 301 301 300 300 299
301 300 300 300 299 299 298 298 298 297 297 297 297 297 297 297 297 297 297 297 297 297 298 298 299 299 300 301 301 301 302 303 303 303 302 300 299 299 299 299 298 297 297 297 297 295 294 295 295 295 295 296 296 295 296 296 295 295 295 295 296 299 301 301 301 301 301 301 300 300 300 300 301 301 301 301 301 301 301 300 300 300 300 300 299
300 300 300 299 299 298 298 297 297 297 296 296 296 296 296 296 296 296 296 297 297 297 297 298 298 298 300 300 301 301 302 302 303 302 301 300 299 299 299 298 297 297 297 298 297 295 294 295 295 295 295 296 296 295 295 295 294 295 295 295 296 298 301 301 301 301 301 301 300 300 300 300 300 300 301 301 301 301 300 300 299 299 299 298 298
300 300 299 299 298 297 297 297 296 296 296 296 296 295 295 296 296 296 296 296 297 297 297 298 298 299 299 300 301 302 302 302 302 301 300 299 299 299 298 298 298 298 298 298 297 295 294 295 295 294 294 295 295 295 295 294 294 295 296 296 297 298 300 301 300 301 301 301 300 300 300 300 300 300 300 301 301 300 299 299 298 298 297 297 296
300 299 299 298 297 297 296 296 296 295 295 295 295 295 295 295 295 295 295 296 296 296 297 297 298 299 299 300 301 302 302 302 301 301 300 299 298 298 298 298 298 298 298 298 296 294 294 295 295 294 294 294 294 294 294 294 294 295 296 297 297 298 299 300 300 301 301 301 300 300 300 300 300 300 300 301 300 300 300 299 298 296 296 296 296
299 299 298 297 296 296 296 295 295 295 295 295 294 294 294 294 294 295 295 295 295 296 296 297 297 298 299 300 301 302 302 301 301 301 299 298 297 297 297 297 297 297 298 297 296 294 295 295 294 293 294 294 294 294 294 293 294 295 296 296 296 297 299 300 300 300 300 300 300 301 301 300 300 300 301 300 300 300 300 298 297 296 296 296 296
299 298 297 297 296 296 295 295 295 294 294 294 294 294 293 294 294 294 295 294 295 295 296 296 297 298 299 300 301 302 301 301 301 300 298 297 297 297 296 296 296 297 297 296 295 294 295 295 294 293 293 294 294 294 293 294 294 295 295 295 295 297 298 299 299 299 300 300 300 300 300 300 300 301 301 301 300 299 298 297 296 296 296 296 296
Wind_Speed
11 10 9 8 8 8 8 8 8 8 8 8 8 8 7 7 7 6 7 7 7 7 7 6 6 5 5 5 5 5 4 4 4 4 3 3 3 4 6 6 7 7 8 8 7 7 8 7 7 8 8 10 11 11 12 13 13 15 15 15 16 17 17 15 10 9 12 15 15 13 16 19 19 19 20 21 21 22 22 21 20 25 33 37 39
12 11 10 9 9 9 8 8 9 9 9 9 9 9 8 8 8 8 8 8 8 8 7 7 6 6 6 5 5 5 4 3 3 4 3 3 2 3 4 5 6 7 8 8 7 7 7 7 7 7 8 9 10 10 12 13 13 14 15 15 16 16 16 14 12 10 10 14 16 15 16 19 19 19 19 19 20 21 21 21 19 21 28 34 37
11 11 11 10 9 9 9 9 9 10 10 10 10 10 9 9 9 9 9 8 8 8 8 7 7 6 6 5 5 4 4 4 4 3 3 3 2 2 3 4 5 7 8 8 8 7 7 6 7 7 8 9 10 10 11 12 13 13 15 15 15 16 16 15 13 11 11 13 15 15 16 17 18 18 17 17 19 19 20 20 19 18 20 24 30
10 11 11 11 10 10 10 10 10 10 11 11 11 11 10 9 9 9 9 8 8 8 8 8 7 7 6 6 5 4 4 5 4 4 4 4 3 2 2 3 5 6 7 8 8 7 6 6 7 7 7 8 9 10 11 12 13 14 14 14 15 15 15 15 14 12 12 12 13 14 14 14 16 17 16 16 17 18 18 19 20 20 18 19 23
10 11 11 11 11 11 11 10 11 11 11 11 11 11 10 10 10 9 9 9 9 8 8 8 7 7 7 6 5 5 5 5 5 4 4 4 4 3 3 4 5 5 6 8 8 7 6 6 6 7 8 8 9 10 11 12 13 14 14 14 15 15 15 15 14 12 11 12 12 13 13 12 13 15 16 17 16 17 17 19 19 20 19 21 22
11 11 11 11 12 12 12 11 12 12 12 12 11 11 10 10 10 10 10 10 10 9 9 8 8 7 7 6 5 5 5 5 5 5 5 5 4 4 3 4 5 5 6 7 8 6 5 5 6 6 7 8 9 11 12 12 13 13 13 14 15 15 14 14 13 12 11 10 11 12 13 13 12 14 16 16 16 15 16 18 19 19 20 21 21
11 11 11 12 12 12 12 12 12 12 12 12 11 11 10 10 11 10 10 10 10 10 10 9 8 8 7 7 6 5 5 5 5 5 6 5 5 5 5 5 5 5 5 6 7 6 5 5 5 6 7 7 9 11 12 12 12 12 13 14 15 15 14 14 13 12 10 10 11 13 13 13 13 13 14 14 15 16 16 16 17 18 20 22 21
11 11 12 12 12 12 12 12 12 12 12 12 11 11 11 11 11 11 11 11 11 11 10 10 9 9 8 8 7 6 5 5 4 5 6 6 5 6 5 5 5 5 5 6 6 6 4 4 5 6 6 7 8 9 11 12 12 12 14 15 15 15 14 12 12 11 10 10 11 12 12 13 13 14 14 14 16 16 15 15 16 17 18 20 21
11 11 12 12 13 12 12 12 12 12 12 12 12 12 12 12 12 12 12 11 11 11 11 10 10 9 9 9 8 7 6 5 4 5 6 6 6 6 5 5 5 6 6 6 6 5 4 3 5 6 6 6 7 7 9 11 11 11 12 14 15 15 14 13 12 11 11 10 10 11 11 12 14 14 14 14 13 12 11 12 15 17 18 19 21
10 11 12 12 12 12 11 12 12 12 13 13 13 13 13 13 12 13 12 12 12 12 12 11 11 11 11 10 9 8 6 6 6 6 5 6 6 6 5 5 5 5 6 6 6 5 4 3 4 6 6 5 5 6 8 9 9 7 9 12 14 15 14 13 12 11 10 10 10 10 9 11 13 13 12 11 11 11 12 12 14 16 17 16 17
9 10 11 11 11 11 11 12 12 13 13 13 13 14 13 13 13 13 13 13 13 13 12 12 12 12 11 11 10 9 7 8 8 7 5 6 8 7 6 5 5 5 5 5 6 5 4 3 3 4 5 4 4 5 7 9 7 6 8 11 14 16 15 13 12 12 12 11 10 10 10 11 12 12 10 10 11 13 14 14 14 15 16 14 13
8 9 9 10 10 10 10 11 12 12 13 13 14 14 14 14 14 14 14 14 14 13 13 13 12 12 12 11 11 10 9 9 9 7 6 6 7 8 7 6 5 4 4 5 5 5 4 3 3 3 4 4 3 3 5 6 6 6 7 9 14 18 18 15 13 13 13 12 11 11 11 10 10 11 10 9 11 14 14 14 16 16 16 15 13
6 7 7 8 8 9 9 10 12 13 13 14 15 15 16 16 16 16 15 15 14 14 14 13 12 13 13 13 12 10 10 11 10 8 7 7 7 8 7 6 5 4 3 3 4 4 3 3 3 2 3 4 4 3 2 3 3 5 5 6 11 16 18 16 13 12 11 11 11 11 10 9 10 11 10 9 10 14 14 13 15 16 15 15 14
4 5 6 6 7 8 9 11 12 13 14 15 15 16 17 17 17 17 16 15 16 15 15 14 15 16 15 14 13 11 11 12 11 8 7 7 7 8 8 7 6 5 3 2 3 3 3 3 3 2 2 3 5 4 3 2 3 3 3 4 8 12 15 15 13 11 10 10 10 10 10 9 9 9 8 9 12 15 13 12 14 15 16 16 17
3 4 5 6 7 8 9 10 11 12 13 14 15 16 17 17 18 17 16 16 16 15 14 14 16 18 17 15 14 12 12 13 12 9 8 7 7 7 8 7 6 5 4 2 2 2 2 2 2 2 2 3 5 5 4 3 2 3 4 5 7 8 11 14 13 10 9 8 8 9 11 11 9 8 7 8 11 13 12 11 12 14 15 17 18
2 3 4 6 6 7 8 10 11 11 12 13 15 15 17 18 18 17 16 16 14 14 16 16 16 17 17 16 15 13 13 14 12 10 9 8 7 7 8 8 7 5 4 3 2 1 1 2 2 1 1 2 4 5 4 2 2 3 4 5 6 6 8 12 13 11 9 9 8 8 10 11 9 8 7 6 8 9 10 10 10 11 13 14 15
4 4 5 6 6 7 8 10 11 11 12 13 15 15 17 18 17 17 17 16 14 15 18 18 17 17 16 16 15 13 14 15 12 10 10 8 6 7 8 8 8 6 5 4 3 2 2 1 1 1 1 2 3 4 3 2 2 2 3 4 5 7 7 7 9 11 10 11 11 9 8 9 9 7 6 5 7 9 9 9 8 10 12 11 11
6 6 6 7 7 8 8 9 11 11 12 13 14 15 16 16 16 16 17 17 18 20 20 17 16 17 17 16 15 14 14 15 14 11 10 9 7 8 8 8 8 7 6 5 4 4 3 2 1 1 1 1 2 2 1 2 2 1 2 3 5 7 7 5 5 7 9 11 12 10 8 9 9 9 6 4 6 9 10 9 8 10 12 10 10
8 8 8 8 8 8 9 10 11 11 12 13 14 14 15 15 14 14 15 16 18 19 20 17 15 15 16 16 17 16 15 15 15 13 11 10 9 10 10 9 9 8 7 7 6 5 5 4 2 0 1 1 2 1 0 2 3 1 1 2 4 5 6 7 6 5 6 8 9 8 9 9 9 9 8 6 6 8 10 10 9 8 9 10 11
9 9 9 9 9 9 9 10 11 12 13 14 14 14 13 13 13 13 13 14 14 15 16 16 15 15 14 14 16 18 17 16 16 15 13 11 10 12 12 10 10 9 8 7 7 6 6 6 3 1 1 3 2 1 1 1 2 1 1 3 5 4 4 6 7 6 5 7 8 8 9 9 9 9 9 8 8 8 9 10 10 9 9 9 9
10 10 11 11 11 11 11 11 11 12 13 13 13 13 13 12 12 12 12 12 13 13 13 14 15 16 16 15 16 18 19 19 18 17 14 12 11 13 14 11 10 9 8 8 8 7 7 7 5 3 1 3 4 2 2 2 1 1 2 4 5 4 3 5 6 5 4 6 7 8 8 9 9 9 9 9 9 8 8 9 11 13 13 11 9
11 12 12 12 12 12 12 12 12 13 12 12 13 13 13 12 12 12 12 12 12 13 13 14 16 17 17 17 18 19 20 21 20 18 16 14 13 14 15 13 11 9 8 8 8 7 7 7 6 5 3 1 3 4 2 2 1 1 1 1 3 4 3 4 4 3 4 5 6 6 7 8 8 9 9 9 9 8 7 8 9 11 13 13 13
12 12 12 12 12 13 13 12 12 12 12 13 13 14 13 12 11 11 12 12 13 13 13 14 15 16 16 15 16 18 20 22 21 19 17 15 14 14 15 15 14 11 8 8 9 7 6 7 7 5 4 1 2 4 3 1 1 1 3 2 2 3 2 2 3 3 4 5 6 6 6 7 8 8 8 8 8 7 6 7 8 9 11 14 14
12 12 12 11 12 12 12 12 12 12 13 13 13 13 13 13 13 12 12 13 13 13 13 13 14 15 16 15 14 15 17 20 21 21 18 16 15 14 16 17 17 13 9 8 8 7 7 7 7 6 4 3 1 4 3 1 2 2 3 3 3 2 1 2 3 3 4 5 5 6 6 7 7 7 7 7 8 7 6 5 6 7 10 13 13
13 13 12 12 12 12 13 12 13 13 13 13 13 13 13 13 14 14 13 13 13 13 13 13 13 14 15 15 14 13 15 18 21 21 20 18 15 14 16 18 18 16 11 8 8 8 8 8 7 6 5 4 0 3 2 2 3 2 4 5 5 3 2 3 5 4 5 5 5 6 6 6 6 7 7 7 7 7 7 6 6 7 10 12 14
14 14 14 14 13 13 14 14 15 15 14 13 13 13 12 12 13 13 14 14 13 13 13 13 13 14 13 13 14 13 14 18 22 23 22 20 17 15 17 17 17 16 14 10 10 10 9 7 6 6 6 5 2 1 2 3 2 3 6 6 5 4 3 4 5 5 6 5 6 6 6 6 6 6 6 7 7 7 7 7 7 8 8 10 13
15 15 15 15 15 14 15 16 17 17 16 15 15 14 12 12 12 12 13 14 14 14 13 13 13 13 13 14 14 13 13 16 21 24 24 22 19 17 18 19 18 18 16 13 11 11 9 6 7 8 7 6 3 2 2 3 4 5 7 6 5 5 5 5 6 7 7 6 6 7 6 6 6 5 6 7 8 8 7 7 7 8 9 10 14
15 15 15 15 15 15 16 17 19 18 18 17 17 16 14 13 13 13 13 13 12 13 13 14 14 14 14 14 14 14 11 13 19 25 27 25 23 20 20 21 20 20 17 13 11 11 10 8 9 9 7 6 5 3 4 5 6 6 7 7 7 7 6 6 7 7 7 7 7 7 6 6 6 6 7 8 9 8 7 6 6 8 8 10 13
15 15 15 15 16 16 17 19 19 19 19 19 19 18 17 16 16 16 15 13 12 12 12 13 14 14 14 14 14 14 12 12 17 24 28 27 25 24 24 24 22 20 17 15 13 11 10 9 10 9 8 7 6 5 6 7 7 7 7 7 8 8 7 7 7 6 6 7 7 7 7 7 7 7 8 9 9 8 6 5 6 8 9 11 13
15 16 16 16 17 18 19 20 20 20 20 21 20 20 20 19 20 19 17 16 16 15 13 13 13 13 14 14 13 14 13 12 14 20 25 27 25 24 25 25 23 21 20 18 14 11 10 10 10 9 9 8 6 6 6 7 8 9 8 7 8 8 7 7 7 6 5 5 6 7 7 7 7 8 8 9 9 8 6 5 5 8 11 12 14
16 17 17 18 18 19 20 20 20 20 20 20 20 20 20 20 20 20 19 18 17 16 16 17 16 15 15 17 15 14 13 14 15 16 20 24 26 25 25 25 24 23 22 20 14 10 10 10 9 9 8 7 6 6 6 7 8 9 9 9 9 8 8 8 7 7 6 5 5 6 6 7 8 8 8 9 8 8 7 5 5 9 12 13 13
17 18 18 18 18 19 20 20 20 19 19 19 19 19 20 19 19 19 19 18 17 17 18 19 18 15 14 16 17 15 13 14 15 14 15 19 24 27 26 24 24 24 22 19 14 10 11 10 9 8 8 7 6 6 6 7 8 8 10 10 9 9 9 7 6 6 6 6 6 5 6 8 8 8 8 9 9 8 8 7 7 10 13 14 13
18 18 18 19 19 19 19 19 19 19 19 20 20 19 18 19 19 19 19 18 19 20 19 17 16 14 12 13 15 16 15 15 14 12 13 16 23 28 27 23 23 24 23 19 13 11 11 11 9 8 7 7 7 7 6 7 7 8 9 9 9 10 9 8 7 6 5 5 6 6 6 7 8 9 9 9 9 9 8 8 8 10 13 14 14
19 19 19 19 19 19 19 19 20 20 20 20 20 19 19 19 19 20 20 19 18 19 18 15 13 12 10 9 10 13 16 17 15 14 13 14 20 27 27 24 23 23 23 19 13 11 12 11 9 8 7 7 7 7 7 7 7 8 8 9 9 10 10 9 9 8 7 6 6 6 6 7 8 9 9 9 10 10 8 8 9 10 12 13 13
19 18 18 18 18 19 19 19 19 19 19 19 19 19 19 19 19 19 19 19 18 18 17 16 13 9 7 9 9 9 13 16 17 16 15 14 19 26 27 24 23 23 22 17 12 11 14 13 10 8 8 7 8 8 7 7 8 8 8 9 9 10 11 11 9 9 8 8 7 7 7 7 8 9 9 10 11 10 9 9 9 8 9 11 13
19 18 17 17 18 19 19 19 19 19 19 19 20 19 19 18 18 18 18 19 19 18 18 19 14 7 6 9 10 7 10 13 15 17 16 17 21 25 25 24 23 22 20 16 12 12 16 15 11 9 9 8 8 8 8 8 8 8 8 9 10 10 11 11 10 9 9 8 7 7 8 8 8 9 10 10 11 11 9 9 9 8 8 10 12
19 18 17 18 20 20 20 20 20 20 21 21 20 19 18 17 18 18 18 18 18 17 18 19 15 10 8 7 4 5 8 11 14 16 16 17 21 25 26 26 24 20 17 16 14 14 17 16 12 9 9 9 8 8 8 8 9 8 8 9 10 10 9 9 10 11 10 9 9 8 7 8 8 9 10 11 11 11 10 9 10 10 10 10 11
19 19 19 20 21 21 21 21 21 21 21 20 19 18 18 18 18 18 17 17 17 17 17 17 16 14 10 3 3 3 7 11 14 15 16 19 23 24 24 25 24 21 17 17 17 18 20 19 14 10 10 9 9 9 8 9 9 9 9 10 9 8 9 10 11 11 10 9 9 9 8 8 8 9 10 11 11 12 11 11 11 12 12 10 9
21 21 21 21 21 21 21 21 20 20 20 19 18 18 19 18 18 17 17 17 17 16 17 16 15 15 12 5 3 4 6 11 15 16 18 22 24 22 21 22 23 21 18 18 20 22 22 21 17 12 10 10 10 9 9 9 9 9 10 10 9 9 11 12 12 11 10 9 9 9 9 9 9 10 11 11 12 12 13 12 11 11 10 9 9
22 22 23 23 22 20 20 20 19 19 19 18 18 19 18 18 18 17 17 17 17 16 16 16 15 15 15 10 3 5 6 9 13 16 18 20 21 21 21 21 22 20 18 19 22 23 23 22 19 14 11 11 11 9 9 10 9 10 10 10 10 12 13 13 12 12 11 10 9 10 10 9 10 10 11 11 12 13 14 14 13 11 9 9 11
23 23 24 23 21 20 19 19 19 19 20 20 19 19 19 18 18 18 17 17 17 17 16 17 16 16 16 13 6 5 7 10 13 16 18 19 21 22 22 20 20 19 19 21 24 25 23 23 21 15 11 12 12 10 10 10 10 10 10 10 10 12 12 11 12 13 12 10 10 10 10 10 10 11 11 12 12 13 14 14 13 12 10 12 15
22 23 23 22 21 19 19 19 19 20 20 20 19 19 19 18 18 19 18 17 17 17 17 17 16 15 16 16 12 10 10 11 13 16 18 19 23 26 26 23 22 21 20 22 26 26 24 24 23 17 13 13 12 11 11 10 10 10 11 10 11 12 12 12 13 13 12 12 11 11 10 11 11 11 11 12 12 13 13 13 13 13 12 14 16
21 21 22 21 20 19 19 20 20 20 19 20 20 20 21 21 20 19 18 18 17 17 17 17 16 14 14 15 15 15 14 13 13 15 17 20 24 28 29 27 26 25 23 24 26 25 24 25 24 18 14 13 13 12 11 11 10 10 11 11 11 12 13 13 14 14 14 13 12 11 11 12 11 11 12 12 12 12 13 13 13 14 14 14 15
20 20 20 19 19 20 20 20 21 21 21 22 23 22 22 21 21 20 19 18 17 17 17 17 16 15 14 13 13 14 15 15 15 15 15 19 25 30 30 29 27 25 23 23 24 24 23 25 24 20 15 14 14 12 11 10 10 10 11 11 12 12 13 14 15 15 15 14 13 11 11 11 11 11 12 12 11 12 13 13 14 14 15 15 14
19 19 19 19 20 21 21 21 22 22 23 23 22 22 21 21 20 19 19 18 17 17 17 16 16 15 15 14 12 13 13 15 16 15 13 17 24 29 30 29 27 25 23 22 22 22 23 25 25 22 18 15 14 12 11 10 10 10 10 11 13 13 13 14 15 15 15 15 13 12 11 10 10 11 12 12 12 12 12 14 15 15 15 16 15
19 19 20 21 22 22 23 23 23 23 24 24 23 22 21 21 20 20 20 20 19 18 17 17 17 16 15 15 14 13 14 14 15 14 13 16 23 28 29 28 27 25 24 24 24 24 24 25 24 23 19 16 15 13 11 11 11 10 10 11 13 13 13 14 15 16 16 15 14 12 11 10 10 11 12 12 12 12 12 14 14 14 15 15 16
19 20 21 22 23 23 24 23 23 24 24 24 23 22 21 21 21 21 21 21 21 19 17 17 17 16 15 15 15 14 14 13 13 13 12 15 21 26 29 28 27 25 25 26 27 26 25 24 23 23 21 18 16 14 12 11 11 10 10 11 13 13 13 14 16 16 16 15 14 13 12 11 11 11 12 12 12 12 13 14 14 14 14 14 15
21 21 21 22 23 23 23 23 23 24 23 23 23 23 22 21 21 20 20 19 18 18 17 17 16 15 15 15 15 14 14 13 12 12 11 13 19 25 28 28 27 25 26 27 28 26 25 24 23 24 23 21 17 14 12 11 11 11 11 11 13 15 15 16 17 17 17 15 14 13 12 12 11 12 13 12 12 13 13 13 14 14 14 13 15
22 21 22 22 23 23 23 23 23 23 23 23 24 23 22 21 20 20 20 20 18 17 17 16 16 15 14 14 15 14 13 12 12 12 10 12 18 25 28 27 26 25 26 27 27 26 25 24 23 23 23 21 18 15 13 12 12 12 12 12 16 19 19 18 18 18 18 16 15 14 13 12 12 13 13 13 13 13 13 13 14 14 15 16 20
21 21 22 23 23 23 23 23 24 24 23 23 23 23 23 22 21 20 20 20 19 18 17 16 16 15 14 14 14 14 12 11 12 12 11 11 17 24 26 25 25 25 24 25 26 27 26 24 24 23 22 20 17 15 13 12 12 12 12 13 18 21 21 19 19 20 19 17 15 14 13 12 12 13 13 13 13 13 13 13 14 14 16 18 22
21 21 22 22 22 23 23 23 23 24 23 23 24 25 25 24 23 22 22 21 19 18 16 15 15 15 14 14 14 13 12 11 12 12 11 12 18 24 24 23 24 26 26 26 27 28 27 25 25 24 22 19 17 15 13 12 13 14 14 16 20 22 21 20 20 21 20 17 15 14 14 13 13 13 13 13 14 15 15 14 14 15 16 17 20
Wind_Direction
204 207 209 211 214 217 219 220 222 224 226 231 237 243 246 245 244 242 243 245 246 248 253 254 257 266 282 296 312 322 319 310 305 298 292 301 323 336 339 340 346 347 345 345 345 346 342 340 348 349 347 349 350 354 0 358 357 1 2 2 3 4 2 354 340 339 356 6 15 24 19 12 14 18 24 31 30 26 25 26 31 37 40 42 44
205 207 208 211 215 218 220 221 222 224 227 231 236 240 240 240 241 242 244 245 241 245 250 247 247 257 269 282 298 310 310 297 284 277 279 291 311 334 341 345 352 354 353 352 350 350 346 343 350 349 342 344 346 349 357 357 356 360 3 3 2 4 3 357 345 337 351 10 18 23 21 17 17 17 21 32 35 33 32 31 34 42 45 46 46
204 204 207 211 214 217 220 222 223 225 228 233 237 240 240 240 241 241 243 242 237 241 246 244 245 253 261 273 285 298 305 292 277 267 273 289 302 322 337 340 349 354 356 357 354 350 349 347 353 353 342 342 346 351 356 355 355 2 4 3 2 2 3 2 358 349 352 9 17 18 19 18 18 15 15 29 41 40 38 36 37 42 43 43 44
203 204 207 212 214 216 220 223 225 226 230 235 239 241 242 243 243 242 243 243 239 240 242 242 247 253 260 271 277 288 301 291 278 268 265 279 294 307 324 332 341 348 353 357 353 349 350 348 353 354 345 345 349 352 357 356 357 4 5 1 3 3 2 5 5 357 357 6 14 18 20 18 18 17 14 25 45 50 46 42 39 42 44 43 45
204 206 210 213 214 217 221 224 227 229 232 237 241 243 244 245 245 244 244 244 242 242 242 242 246 252 257 266 273 285 296 291 280 270 261 265 280 295 310 319 331 341 346 351 350 348 348 346 351 355 351 353 353 351 355 356 358 5 7 4 4 4 5 6 3 360 7 11 8 11 21 24 21 21 19 24 41 55 57 52 45 43 46 49 53
205 209 213 215 217 219 221 224 228 232 234 237 241 243 245 246 246 246 245 245 244 242 243 242 242 249 255 258 266 280 290 291 282 270 263 261 265 277 286 296 315 328 335 346 348 344 343 342 345 350 352 357 356 351 355 359 360 4 8 7 6 5 6 5 360 1 13 17 11 11 21 29 26 24 24 26 36 49 60 62 54 46 43 46 50
206 211 215 219 222 222 222 225 228 232 235 237 240 243 245 245 245 246 246 246 244 242 244 243 240 246 252 252 257 269 282 288 281 267 262 260 261 269 277 284 299 313 320 334 344 342 340 341 341 344 350 356 356 353 356 358 359 4 9 8 7 7 7 4 2 6 13 16 19 20 22 27 31 29 26 30 38 43 51 61 60 50 42 42 44
209 213 216 221 225 225 225 226 228 232 235 237 238 240 243 244 243 244 245 245 245 244 246 245 241 243 245 245 247 255 268 276 274 269 265 262 261 264 271 283 294 303 311 322 335 339 337 344 346 343 344 352 358 357 355 355 356 3 11 11 8 8 7 6 7 10 17 23 24 22 22 26 32 32 27 29 36 36 39 55 66 61 50 46 46
212 217 220 224 227 228 228 226 228 231 233 236 238 239 241 243 243 243 242 243 243 244 244 242 241 242 242 240 240 245 255 257 261 275 270 259 261 266 269 279 291 303 311 319 330 335 335 342 348 350 348 353 2 357 352 356 360 4 11 12 10 8 5 11 19 16 18 30 32 25 26 29 32 34 30 26 33 37 36 53 70 72 65 57 51
217 222 227 229 230 229 228 227 229 230 232 235 237 238 240 242 243 242 242 241 240 240 238 236 236 240 241 239 237 240 242 241 257 283 275 250 252 264 270 272 282 298 307 318 328 330 331 331 338 352 359 355 353 354 359 7 15 25 28 24 21 15 8 13 25 27 27 34 34 28 32 37 36 35 30 23 33 47 46 52 71 81 79 71 58
224 230 234 236 235 232 231 231 231 232 234 235 237 239 240 241 242 242 240 240 239 237 234 234 236 239 241 240 238 240 238 237 256 284 281 252 244 250 264 267 272 288 297 313 326 326 327 331 329 342 355 351 341 349 6 13 28 53 45 35 34 32 25 18 18 27 33 31 29 29 34 42 40 34 28 26 36 49 52 54 66 75 77 75 66
237 242 245 246 244 241 239 238 239 239 238 237 238 239 239 239 240 240 238 237 236 233 231 233 238 241 241 240 241 243 240 241 257 277 282 267 243 238 253 261 258 270 285 305 324 326 321 325 334 336 349 2 1 1 10 12 33 52 37 31 37 37 33 26 19 24 28 24 28 32 27 32 42 39 28 17 31 51 58 59 64 69 71 72 73
255 260 262 261 257 253 250 247 247 246 242 241 240 237 237 238 238 237 237 235 232 230 229 230 235 238 237 236 240 244 240 243 256 268 275 277 254 236 241 251 250 251 264 295 317 326 317 314 333 347 353 9 13 14 20 26 46 45 28 30 40 37 33 27 24 28 31 28 34 34 21 17 34 42 29 9 31 57 65 64 68 72 71 71 74
270 272 271 267 261 255 252 250 250 250 246 243 240 238 238 237 236 235 233 231 229 228 225 224 228 231 230 229 233 238 236 241 252 260 266 277 266 242 234 237 238 234 238 278 308 316 315 312 326 351 7 14 9 5 12 44 63 51 32 36 43 42 36 28 25 31 34 35 37 36 31 28 34 41 31 20 42 61 68 71 77 81 80 79 78
278 276 274 271 266 261 260 260 260 260 257 251 246 245 245 243 240 236 232 230 229 225 223 225 227 228 227 225 226 229 232 239 249 253 258 270 267 245 230 226 224 218 218 240 277 289 297 304 315 347 14 10 6 9 12 19 42 55 47 37 41 50 43 32 29 33 38 41 44 45 46 43 45 51 46 40 52 65 74 76 81 88 88 84 80
330 311 296 289 285 278 273 270 267 265 263 258 252 250 251 249 245 240 236 233 226 223 229 233 231 228 225 222 222 224 230 238 244 244 249 260 256 238 224 218 215 207 205 211 208 218 261 290 298 323 24 360 352 15 31 6 358 46 52 40 40 51 45 33 29 30 38 49 55 58 53 47 44 52 62 65 58 62 76 76 75 89 92 85 81
2 343 321 308 300 290 281 276 272 268 263 259 255 252 251 250 246 239 235 228 221 227 237 236 231 230 226 220 218 219 226 236 239 238 245 250 235 221 218 215 212 203 197 198 188 180 202 231 271 306 20 355 332 9 37 330 311 33 57 42 44 48 47 43 35 30 34 48 55 61 64 57 48 46 63 76 50 44 64 74 73 89 95 90 87
5 353 339 327 316 303 293 287 283 278 271 266 262 258 255 254 248 238 231 229 231 238 244 240 233 233 229 219 214 214 222 234 237 234 239 241 220 207 213 214 209 203 195 191 182 179 185 172 171 304 2 333 311 360 31 302 308 65 69 41 49 52 47 51 52 42 41 47 50 55 62 61 55 48 49 60 43 38 55 74 82 90 93 92 96
358 350 340 330 321 313 303 296 291 287 282 277 272 268 264 261 255 242 237 238 237 239 242 241 236 235 230 221 218 219 220 228 232 231 234 237 219 205 210 213 208 204 197 186 179 179 179 168 164 216 45 3 307 310 295 312 339 56 90 44 64 64 50 44 42 45 61 65 61 64 66 63 62 57 46 39 36 33 45 66 79 89 96 100 105
348 340 334 327 321 316 309 302 297 293 290 286 283 278 273 269 263 254 250 248 241 238 239 236 232 233 228 217 220 225 222 221 227 228 229 233 222 208 207 210 207 205 199 185 178 182 183 176 174 181 87 55 7 309 248 291 351 11 356 41 54 45 38 49 47 44 65 81 81 81 76 66 63 63 56 47 42 37 38 47 47 46 65 91 107
339 334 330 325 323 323 320 315 308 301 296 293 290 286 282 276 270 263 258 253 247 244 241 235 235 235 226 216 221 229 227 224 226 226 225 229 225 212 207 209 207 203 197 187 181 185 188 177 168 176 129 60 29 352 279 231 172 78 42 46 47 35 28 49 58 62 75 85 86 84 80 73 65 62 61 54 46 44 43 42 38 40 47 60 84
336 333 329 326 327 327 324 322 318 310 305 303 299 295 291 286 277 270 267 261 254 250 246 246 248 242 228 221 222 228 231 229 226 224 224 227 226 215 207 205 206 201 194 189 186 187 185 172 168 187 191 89 26 360 324 231 199 117 139 60 49 61 60 40 48 79 92 90 86 77 72 75 71 63 61 56 48 48 53 50 47 50 54 59 69
337 335 332 330 332 331 327 327 326 321 319 316 309 302 300 296 287 281 280 276 266 259 256 257 254 246 237 229 221 223 229 229 225 224 224 225 226 217 206 200 199 196 189 186 189 189 181 169 176 197 203 170 11 354 341 248 241 231 206 189 69 79 88 46 50 88 101 99 95 84 73 73 72 67 61 55 50 50 59 63 60 61 65 70 72
342 340 337 337 337 334 333 334 332 329 327 324 317 311 309 306 299 294 291 286 278 273 270 266 259 252 248 240 222 213 216 218 221 223 223 224 225 215 205 203 199 194 188 190 192 187 177 180 194 210 213 203 318 354 347 242 218 216 197 165 124 131 151 85 83 111 126 117 103 90 78 71 70 70 66 61 58 58 64 72 74 73 73 76 75
347 344 342 342 339 335 334 334 334 332 327 325 322 318 315 314 310 305 301 294 288 286 283 278 270 262 255 246 231 212 198 202 215 220 218 221 223 212 205 207 203 196 189 189 193 191 189 199 210 212 208 201 160 12 354 245 224 191 164 160 165 179 154 88 90 118 131 117 105 99 90 79 75 73 72 74 73 73 79 82 86 91 89 84 79
347 343 342 340 335 334 333 332 331 328 323 322 321 319 318 318 316 312 309 304 297 293 292 288 282 272 263 258 248 223 195 194 208 214 213 214 215 208 204 206 204 198 193 193 199 202 208 217 208 192 190 189 182 312 267 233 215 167 158 170 184 176 131 92 90 109 118 111 104 106 102 94 89 82 81 85 82 81 88 92 95 106 108 96 85
344 339 337 334 331 330 331 329 326 322 320 319 317 313 312 313 313 312 312 311 308 304 298 292 287 278 271 267 256 234 207 196 203 207 207 208 207 203 203 204 201 196 194 195 202 209 216 214 190 179 182 184 186 228 225 200 186 172 170 177 171 137 112 93 87 98 110 110 103 103 105 106 105 98 93 95 94 92 96 99 104 114 117 105 91
339 333 330 328 325 324 324 323 320 317 315 314 312 309 307 306 305 307 308 307 308 310 306 299 291 283 275 270 259 243 222 205 204 207 206 205 203 199 200 203 199 194 190 188 194 207 211 194 174 174 185 193 195 193 186 187 190 187 179 169 150 131 120 111 100 97 103 108 108 111 116 117 114 107 100 98 98 99 100 100 108 119 120 109 98
332 327 323 321 318 317 317 315 313 310 308 307 304 303 301 297 294 297 298 294 292 297 300 296 292 287 281 276 268 255 236 220 223 222 215 208 204 200 199 201 196 190 187 184 183 191 190 175 171 180 191 196 197 186 178 184 188 182 177 167 156 154 153 139 121 109 110 113 113 116 118 116 111 107 104 99 96 97 100 103 115 123 119 109 103
325 321 319 316 313 311 310 308 307 305 303 302 301 299 298 295 290 288 286 284 285 288 289 287 286 283 275 269 268 264 251 245 253 242 223 212 210 207 204 201 192 185 186 186 182 181 179 175 181 191 193 193 193 183 178 186 184 175 174 175 168 163 162 150 136 132 127 115 108 110 114 113 108 106 105 103 100 98 98 102 119 124 118 110 108
320 316 314 311 309 308 305 303 303 302 300 300 301 300 300 299 296 291 286 281 279 282 287 290 287 278 267 258 257 261 259 259 263 251 227 216 212 207 205 200 191 186 188 186 181 179 183 187 193 194 191 192 190 179 178 188 187 176 174 175 170 165 163 156 149 149 144 128 115 112 110 106 103 104 105 104 106 106 102 100 114 120 117 113 113
316 312 311 309 308 306 303 301 302 301 302 303 302 301 302 302 302 301 296 288 282 282 287 291 288 280 270 259 253 252 253 254 254 245 231 222 211 203 202 200 193 190 189 186 183 184 186 191 198 194 190 189 183 178 184 190 189 183 178 173 171 170 165 157 157 165 155 137 127 119 112 106 103 104 103 101 105 109 105 99 105 115 117 115 113
314 311 310 310 309 307 305 306 307 307 307 308 306 304 304 303 303 306 305 299 293 287 284 284 283 283 280 267 255 246 240 243 245 238 230 223 210 202 200 200 197 193 189 186 189 189 186 193 199 192 186 187 181 179 187 190 189 188 181 173 172 171 159 149 156 163 147 131 131 129 125 120 112 108 103 98 100 106 105 102 108 118 122 120 117
312 311 312 312 312 311 312 313 313 311 310 308 307 306 305 305 305 305 303 303 300 293 285 280 276 277 282 279 266 249 237 235 238 235 226 217 207 201 197 196 195 193 189 190 195 188 181 188 195 188 183 184 181 181 184 185 187 189 181 175 173 169 162 160 163 162 154 148 141 133 133 129 118 113 109 102 102 104 102 105 113 120 123 124 124
318 316 315 316 316 317 318 318 314 311 309 308 310 310 308 306 305 301 299 300 300 298 296 291 279 267 278 294 290 261 235 229 230 230 222 211 204 198 191 184 183 186 190 195 196 188 185 187 189 187 185 183 181 182 181 182 186 186 180 176 171 166 166 170 167 163 164 159 140 130 136 132 118 115 115 110 109 109 105 104 110 115 119 125 127
322 318 319 321 322 322 320 315 310 308 308 308 308 307 305 304 304 302 301 300 298 296 297 297 290 271 274 295 295 264 230 223 222 222 217 209 202 193 183 176 177 183 190 193 192 192 193 191 187 186 186 183 182 182 177 177 184 184 179 175 172 170 172 174 170 165 162 156 147 145 145 136 126 124 120 113 112 113 109 106 109 115 122 124 124
324 321 321 323 322 319 314 309 306 307 308 306 304 303 304 305 305 304 303 302 301 298 295 295 294 284 271 275 277 242 221 212 210 214 216 210 200 191 185 182 180 179 184 188 187 193 196 192 187 188 188 183 182 180 174 174 180 182 178 175 173 169 161 159 162 165 162 157 155 152 143 136 137 135 128 121 118 116 114 112 115 122 126 121 116
326 322 319 319 317 313 308 306 307 308 308 307 305 305 306 305 304 303 301 299 300 300 296 293 292 289 281 257 142 181 208 195 192 198 200 195 191 189 188 187 183 181 184 187 188 194 197 193 189 190 189 184 181 176 171 172 176 178 178 177 170 152 138 143 155 163 164 162 157 151 145 144 144 139 134 131 126 121 121 121 121 124 125 121 116
327 322 320 321 318 312 308 308 308 309 310 309 309 309 308 306 304 304 302 301 301 299 298 297 295 292 290 279 149 157 188 186 184 183 180 182 186 188 188 188 187 188 189 188 189 193 196 193 189 190 188 184 180 174 171 171 173 175 179 180 173 162 161 166 168 165 166 166 160 152 151 151 149 144 140 135 130 128 126 125 127 128 125 121 119
328 324 323 321 317 312 310 311 311 312 313 313 311 310 308 307 307 305 303 303 302 298 297 297 295 297 302 301 240 184 203 207 195 184 177 178 183 186 185 187 190 190 188 187 191 195 195 191 189 190 188 183 179 174 171 170 170 173 179 181 175 170 173 176 172 166 166 167 161 154 152 152 151 147 141 136 135 134 130 128 130 131 126 124 125
326 323 321 318 315 313 313 314 315 316 315 312 310 309 308 308 306 303 300 299 298 296 294 292 289 293 304 307 285 231 245 242 216 196 185 180 181 182 182 184 187 187 186 189 195 197 194 189 188 190 188 182 177 173 171 168 167 171 178 180 175 172 173 173 170 165 162 163 162 156 151 150 150 147 142 139 139 139 136 133 133 131 129 132 131
324 321 319 317 315 315 315 315 316 316 313 310 308 307 307 306 303 300 297 294 292 291 289 288 286 286 290 293 290 280 273 258 230 210 198 190 187 187 186 186 189 190 191 195 198 197 193 188 188 190 189 182 176 173 171 170 168 170 176 179 176 173 171 169 167 164 160 159 159 150 139 139 142 142 143 145 144 143 144 142 137 133 133 137 137
322 320 318 316 315 314 314 314 313 311 308 307 304 302 300 298 296 293 291 289 288 287 285 285 287 284 282 284 283 275 266 256 239 222 208 199 195 192 189 191 194 195 197 201 201 198 193 189 188 189 189 182 177 175 172 171 169 169 174 179 178 174 171 168 165 164 161 156 149 138 132 135 136 138 145 149 145 143 146 146 141 137 136 138 140
323 322 320 318 317 315 314 312 310 306 304 303 301 298 296 293 291 289 287 286 286 287 286 285 285 282 280 280 275 262 253 248 240 228 215 204 199 195 193 193 193 192 193 197 198 196 193 189 187 189 187 179 177 177 173 170 170 170 172 177 178 175 172 168 165 165 162 154 145 138 135 132 131 137 146 149 146 143 146 148 147 144 141 142 142
326 325 322 321 320 318 315 312 308 305 304 303 302 300 297 294 291 289 287 285 285 286 286 285 284 280 274 271 265 257 251 245 236 228 217 207 201 197 195 194 191 187 185 185 186 189 191 188 187 190 187 178 175 178 172 166 167 169 169 174 177 176 172 168 166 165 162 156 150 146 142 137 138 144 149 153 152 148 147 149 150 147 145 145 146
328 327 324 322 321 317 314 311 308 306 304 304 303 301 298 296 293 289 286 284 283 283 282 281 280 277 270 263 258 255 254 247 235 225 216 205 199 197 195 192 187 183 181 179 179 185 189 187 186 191 189 178 173 175 170 161 162 165 164 170 175 175 170 166 165 165 163 158 155 154 152 150 149 146 146 152 155 151 148 150 151 149 147 147 146
330 328 326 325 322 318 314 312 309 307 305 303 301 300 297 295 293 289 286 284 281 278 276 275 272 269 265 260 253 249 249 245 234 223 215 203 197 197 195 189 183 182 184 184 183 185 185 183 185 192 191 179 171 171 167 160 160 162 161 165 172 173 167 164 164 164 162 159 158 156 153 152 150 146 146 150 153 151 149 149 147 145 145 142 142
331 329 328 325 321 317 314 311 309 308 306 304 302 300 298 296 293 289 288 286 281 278 276 273 268 264 261 256 252 248 243 236 227 221 212 202 197 196 192 186 183 185 189 190 188 184 180 180 186 194 191 182 173 169 164 159 161 161 157 161 171 172 166 162 164 164 161 157 156 156 153 150 150 150 149 150 151 150 149 145 141 140 141 140 143
333 330 327 323 318 315 313 311 310 309 308 306 304 302 300 297 294 290 289 286 282 278 276 272 267 263 257 253 252 247 234 221 218 216 206 196 195 194 190 186 186 188 189 189 185 179 175 179 188 193 189 180 172 167 162 161 161 158 156 166 175 173 165 160 162 162 158 154 154 155 153 149 149 149 148 148 150 152 152 148 141 138 139 143 147
336 331 326 321 317 314 313 312 311 310 309 306 304 303 302 299 295 291 289 288 284 279 274 269 265 260 254 252 252 243 224 211 214 213 199 186 188 189 187 185 186 186 186 185 180 174 174 180 187 188 182 174 167 165 165 161 156 157 166 178 179 173 166 162 162 160 157 154 153 153 151 149 148 147 147 148 149 149 151 149 143 140 141 145 148
336 331 326 321 316 315 315 315 314 312 311 309 306 305 304 302 299 296 293 290 286 279 272 267 262 256 251 252 250 238 220 209 207 201 190 184 186 185 182 181 182 183 183 182 177 173 176 182 184 181 174 167 163 164 162 157 159 170 180 178 173 170 168 166 163 161 158 155 153 151 150 149 148 146 146 146 146 145 144 145 144 143 143 144 146